Crossville, TN

6:01 PM CDT on May 24, 2017 (GMT -0500)
Crossville Memorial-Whitson

Weather History for KCSV - April, 2013

Change the Weather History Date:

Wednesday, April 24, 2013

  Actual Average Record
Temperature  
Mean Temperature 52 °F 58 °F  
Max Temperature 64 °F 69 °F 84 °F (1965)
Min Temperature 39 °F 48 °F 29 °F (1986)
Degree Days  
Heating Degree Days 14    
Month to date heating degree days  
Since 1 July heating degree days  
Cooling Degree Days 0    
Month to date cooling degree days  
Year to date cooling degree days  
Growing Degree Days 2 (Base 50)    
Moisture  
Dew Point 47 °F    
Average Humidity 86    
Maximum Humidity 100    
Minimum Humidity 58    
Precipitation  
Precipitation 0.33 in 0.17 in 1.88 in (2002)
Month to date precipitation 3.86  
Year to date precipitation 18.06  
Sea Level Pressure  
Sea Level Pressure 30.09 in    
Wind  
Wind Speed 9 mph (West)    
Max Wind Speed 15 mph    
Max Gust Speed 31 mph    
Visibility 7 miles    
Events Fog , Rain    
T = Trace of Precipitation, MM = Missing Value Source: NWS Daily Summary

Daily Weather History Graph

Daily Weather History Graph

Search for Another Location

Airport or City:

Trip Planner

Search our weather history database for the weather conditions in past years. The results will help you decide how hot, cold, wet, or windy it might be!

Date:

Astronomy

Apr. 24, 2013 Rise Set
Actual Time 5:55 AM CDT 7:21 PM CDT
Civil Twilight 5:28 AM CDT 7:48 PM CDT
Nautical Twilight 4:56 AM CDT 8:21 PM CDT
Astronomical Twilight 4:22 AM CDT 8:55 PM CDT
Moon 6:25 PM CDT 4:56 AM CDT
Length of Visible Light 14h 20m
Length of Day
13h 26m
Waxing Gibbous, 98% of the Moon is Illuminated
Apr 24
Waxing Gibbous
Apr 25
Full
May 2
Last Quarter
May 9
New
May 17
First Quarter

Hourly Weather History & Observations

Time (CDT) Temp. Windchill Dew Point Humidity Pressure Visibility Wind Dir Wind Speed Gust Speed Precip Events Conditions
12:53 AM 61.0 °F - 46.0 °F 58% 30.03 in 10.0 mi South 6.9 mph - N/A   Partly Cloudy
1:53 AM 61.0 °F - 46.9 °F 60% 30.00 in 10.0 mi South 5.8 mph 16.1 mph N/A   Mostly Cloudy
2:53 AM 60.1 °F - 48.0 °F 64% 29.97 in 10.0 mi SSE 10.4 mph 17.3 mph N/A   Partly Cloudy
3:53 AM 60.1 °F - 48.0 °F 64% 29.96 in 10.0 mi South 8.1 mph 16.1 mph N/A   Clear
5:53 AM 59.0 °F - 48.0 °F 67% 29.96 in 10.0 mi Variable 6.9 mph - N/A   Mostly Cloudy
6:53 AM 60.1 °F - 50.0 °F 69% 29.97 in 10.0 mi South 11.5 mph 18.4 mph N/A   Scattered Clouds
7:53 AM 61.0 °F - 51.1 °F 70% 29.95 in 10.0 mi SSW 9.2 mph 25.3 mph N/A   Clear
8:53 AM 64.0 °F - 53.1 °F 67% 29.95 in 10.0 mi Variable 6.9 mph 23.0 mph N/A   Mostly Cloudy
9:53 AM 64.0 °F - 52.0 °F 65% 29.97 in 10.0 mi SSW 10.4 mph 31.1 mph N/A   Clear
10:53 AM 63.0 °F - 53.1 °F 70% 29.99 in 10.0 mi SW 13.8 mph 21.9 mph N/A   Overcast
11:12 AM 60.8 °F - 55.4 °F 82% 30.05 in 2.5 mi Variable 6.9 mph 20.7 mph 0.02 in Rain Rain
11:27 AM 59.0 °F - 55.4 °F 88% 30.07 in 1.5 mi West 12.7 mph 18.4 mph 0.07 in Rain Rain
11:36 AM 59.0 °F - 55.4 °F 88% 30.06 in 1.5 mi WSW 8.1 mph 19.6 mph 0.11 in Rain Rain
11:43 AM 59.0 °F - 55.4 °F 88% 30.08 in 1.5 mi WSW 13.8 mph 20.7 mph 0.16 in Rain Rain
11:53 AM 57.9 °F - 55.9 °F 93% 30.06 in 1.0 mi West 11.5 mph 19.6 mph 0.24 in Rain Heavy Rain
12:05 PM 57.2 °F - 55.4 °F 94% 30.08 in 3.0 mi SW 10.4 mph 23.0 mph 0.03 in Rain Rain
12:14 PM 57.2 °F - 55.4 °F 94% 30.06 in 3.0 mi West 6.9 mph 17.3 mph 0.05 in Rain Rain
12:53 PM 59.0 °F - 55.0 °F 87% 30.02 in 10.0 mi Variable 5.8 mph 16.1 mph 0.07 in   Overcast
1:04 PM 57.2 °F - 55.4 °F 94% 30.05 in 10.0 mi SW 8.1 mph 19.6 mph N/A   Overcast
1:40 PM 53.6 °F - 51.8 °F 94% 30.07 in 7.0 mi WNW 15.0 mph 26.5 mph 0.01 in Rain Light Rain
1:53 PM 54.0 °F - 51.1 °F 90% 30.04 in 10.0 mi WNW 13.8 mph - 0.01 in   Overcast
2:53 PM 48.0 °F - 46.0 °F 93% 30.07 in 3.0 mi WSW 8.1 mph - 0.00 in Rain Light Rain
2:57 PM 48.2 °F - 46.4 °F 93% 30.09 in 1.8 mi WSW 5.8 mph - 0.00 in Rain Light Rain
3:13 PM 48.2 °F - 46.4 °F 93% 30.10 in 2.5 mi West 13.8 mph 18.4 mph 0.01 in   Overcast
3:53 PM 46.0 °F 41.0 °F 44.1 °F 93% 30.10 in 2.0 mi WNW 10.4 mph - 0.01 in   Overcast
4:08 PM 44.6 °F 39.7 °F 44.6 °F 100% 30.12 in 1.8 mi WNW 9.2 mph - N/A   Overcast
4:15 PM 44.6 °F 39.7 °F 44.6 °F 100% 30.13 in 0.5 mi WNW 9.2 mph - N/A Fog Fog
4:25 PM 44.6 °F 40.7 °F 44.6 °F 100% 30.13 in 0.2 mi West 6.9 mph - N/A Fog Fog
4:32 PM 44.6 °F 40.2 °F 44.6 °F 100% 30.13 in 0.8 mi WNW 8.1 mph 16.1 mph N/A   Overcast
4:35 PM 44.6 °F 39.2 °F 44.6 °F 100% 30.13 in 3.0 mi WNW 10.4 mph 16.1 mph N/A   Overcast
4:53 PM 46.0 °F 41.0 °F 44.1 °F 93% 30.13 in 10.0 mi WNW 10.4 mph 18.4 mph N/A   Overcast
5:27 PM 44.6 °F 39.7 °F 42.8 °F 93% 30.15 in 5.0 mi WNW 9.2 mph - N/A   Overcast
5:53 PM 45.0 °F 40.1 °F 43.0 °F 93% 30.15 in 6.0 mi NW 9.2 mph - N/A   Overcast
6:07 PM 44.6 °F 40.2 °F 42.8 °F 93% 30.16 in 5.0 mi WNW 8.1 mph - N/A   Overcast
6:53 PM 44.1 °F 39.0 °F 41.0 °F 89% 30.17 in 10.0 mi NW 9.2 mph - N/A   Overcast
7:32 PM 42.8 °F 38.0 °F 41.0 °F 93% 30.19 in 10.0 mi NNW 8.1 mph 18.4 mph N/A   Overcast
7:43 PM 42.8 °F 36.2 °F 39.2 °F 87% 30.19 in 7.0 mi NNW 12.7 mph - N/A   Overcast
7:53 PM 43.0 °F 38.2 °F 39.9 °F 89% 30.19 in 9.0 mi NNW 8.1 mph - N/A   Overcast
8:00 PM 42.8 °F 37.5 °F 39.2 °F 87% 30.20 in 10.0 mi NNW 9.2 mph - N/A   Overcast
8:07 PM 42.8 °F 38.0 °F 39.2 °F 87% 30.20 in 10.0 mi NNW 8.1 mph - N/A   Overcast
8:53 PM 43.0 °F 40.3 °F 39.0 °F 86% 30.20 in 10.0 mi NNW 4.6 mph - N/A   Overcast
9:53 PM 41.0 °F 38.0 °F 37.0 °F 86% 30.22 in 10.0 mi North 4.6 mph - N/A   Scattered Clouds
10:49 PM 39.2 °F 37.0 °F 37.4 °F 93% 30.24 in 10.0 mi North 3.5 mph - N/A   Mostly Cloudy
10:53 PM 39.9 °F - 37.0 °F 89% 30.24 in 9.0 mi Calm Calm - N/A   Mostly Cloudy
11:53 PM 41.0 °F 39.0 °F 37.9 °F 89% 30.25 in 8.0 mi NNW 3.5 mph - N/A   Overcast